This is the latest recevied weather packets stored in our database for station/object KC7UNY-13. If no packets are shown the sender has not sent any weather packets the latest 10 day(s).
| Time | Temp. | Humidity | Pressure | Rain* | Wind** | Luminosity | Snow |
|---|---|---|---|---|---|---|---|
| 1776954419 | 19.44° C | 32% | 1013.7 hPa | 0 mm | - | 137 W/m² | - |
| 1776954108 | 18.89° C | 33% | 1013.6 hPa | 0 mm | - | 120 W/m² | - |
| 1776953803 | 18.89° C | 33% | 1013.6 hPa | 0 mm | - | 109 W/m² | - |
| 1776953499 | 18.33° C | 34% | 1013.5 hPa | 0 mm | - | 85 W/m² | - |
| 1776953198 | 17.78° C | 38% | 1013.4 hPa | 0 mm | - | 99 W/m² | - |
| 1776952898 | 17.22° C | 39% | 1013.4 hPa | 0 mm | - | 90 W/m² | - |
| 1776952595 | 16.67° C | 39% | 1013.3 hPa | 0 mm | - | 71 W/m² | - |
| 1776952291 | 16.67° C | 38% | 1013.3 hPa | 0 mm | - | 54 W/m² | - |
| 1776951988 | 16.67° C | 39% | 1013 hPa | 0 mm | - | 56 W/m² | - |
| 1776951685 | 15.56° C | 40% | 1013 hPa | 0 mm | - | 61 W/m² | - |
| 1776951381 | 15° C | 41% | 1013.2 hPa | 0 mm | - | 40 W/m² | - |
| 1776951078 | 15° C | 41% | 1012.9 hPa | 0 mm | - | 39 W/m² | - |
| 1776950774 | 14.44° C | 41% | 1013.3 hPa | 0 mm | - | 26 W/m² | - |
| 1776950469 | 14.44° C | 41% | 1012.9 hPa | 0 mm | - | 20 W/m² | - |
| 1776950168 | 14.44° C | 41% | 1012.9 hPa | 0 mm | - | 18 W/m² | - |
| 1776949865 | 14.44° C | 41% | 1012.9 hPa | 0 mm | - | 16 W/m² | - |
| 1776949562 | 13.89° C | 42% | 1012.8 hPa | 0 mm | - | 12 W/m² | - |
| 1776949257 | 14.44° C | 43% | 1013 hPa | 0 mm | - | 9 W/m² | - |
| 1776948953 | 14.44° C | 41% | 1012.7 hPa | 0 mm | - | 6 W/m² | - |
| 1776948650 | 13.89° C | 41% | 1012.7 hPa | 0 mm | - | 4 W/m² | - |
| 1776948347 | 14.44° C | 41% | 1012.6 hPa | 0 mm | - | 2 W/m² | - |
| 1776948046 | 13.89° C | 41% | 1012.6 hPa | 0 mm | - | 1 W/m² | - |
| 1776947742 | 14.44° C | 41% | 1012.4 hPa | 0 mm | - | 0 W/m² | - |
| 1776947438 | 14.44° C | 40% | 1012.5 hPa | 0 mm | - | 0 W/m² | - |
| 1776947135 | 14.44° C | 40% | 1012.3 hPa | 0 mm | - | 0 W/m² | - |
* Rain latest hour (hover to see other rain measurements)
** Current wind speed in m/s (hover to see current wind gust speed)